FW4125 Weather Reports


time (UTC)temp
F
wind
direction
speed
knots
gust
knots
rain 1hr
in
rain 24hr
in
rain mn
in
humidity
%
barometer
mb
20260506134504 53 58 0.0 2.6 0.00 0.00 0.00 61
20260506133008 53 127 0.0 2.6 0.00 0.00 0.00 61
20260506131512 53 45 0.9 3.5 0.00 0.00 0.00 61
20260506130013 54 60 0.9 4.3 0.00 0.00 0.00 60
20260506124512 54 71 0.9 3.5 0.00 0.00 0.00 59
20260506123011 54 74 0.9 3.5 0.00 0.00 0.00 58
20260506121510 55 33 0.0 3.5 0.00 0.00 0.00 57
20260506120007 55 229 0.0 6.1 0.00 0.00 0.00 56
20260506114506 55 280 0.9 4.3 0.00 0.00 0.00 56
20260506113016 55 48 0.0 4.3 0.00 0.00 0.00 56
20260506111510 56 258 0.9 5.2 0.00 0.00 0.00 56
20260506110013 56 57 0.9 2.6 0.00 0.00 0.00 56
20260506104513 56 58 1.7 6.1 0.00 0.00 0.00 56
20260506103014 57 109 0.9 2.6 0.00 0.00 0.00 56
20260506101519 57 54 0.9 3.5 0.00 0.00 0.00 56
20260506100016 57 242 0.9 3.5 0.00 0.00 0.00 56
20260506094520 57 70 0.0 3.5 0.00 0.00 0.00 56
20260506093018 58 359 0.0 2.6 0.00 0.00 0.00 56
20260506091519 58 29 0.9 3.5 0.00 0.00 0.00 56
20260506090024 59 60 0.0 1.7 0.00 0.00 0.00 57
20260506084520 59 205 0.0 2.6 0.00 0.00 0.00 57
20260506083015 59 31 0.9 2.6 0.00 0.00 0.00 57
20260506081513 59 273 0.0 1.7 0.00 0.00 0.00 57
20260506073017 60 63 0.0 2.6 0.00 0.00 0.00 57
20260506071519 60 64 0.0 1.7 0.00 0.00 0.00 58
20260506061542 61 19 0.0 2.6 0.00 0.00 0.00 58
20260506044530 64 309 0.0 2.6 0.00 0.00 0.00 57
20260506043037 64 249 0.9 4.3 0.00 0.00 0.00 56
20260506041534 65 231 0.0 3.5 0.00 0.00 0.00 56
20260506040032 66 345 0.0 4.3 0.00 0.00 0.00 55
20260506034532 66 298 0.9 2.6 0.00 0.00 0.00 54
20260506033026 67 238 0.9 3.5 0.00 0.00 0.00 54
20260506031536 68 52 0.9 3.5 0.00 0.00 0.00 54
20260506030030 68 342 0.9 3.5 0.00 0.00 0.00 54
20260506024540 69 80 0.9 2.6 0.00 0.00 0.00 53
20260506023025 69 62 0.9 3.5 0.00 0.00 0.00 52
20260506021526 70 62 0.9 4.3 0.00 0.00 0.00 51
20260506020026 70 57 0.9 4.3 0.00 0.00 0.00 51
20260506014530 71 39 0.9 3.5 0.00 0.00 0.00 50
20260506013024 72 24 0.0 2.6 0.00 0.00 0.00 50
20260506011532 73 51 0.0 3.5 0.00 0.00 0.00 50
20260506010034 74 61 0.0 4.3 0.00 0.00 0.00 49
20260506004539 75 77 0.9 3.5 0.00 0.00 0.00 48
20260506003046 76 34 0.9 4.3 0.00 0.00 0.00 47
20260506001551 78 60 0.0 2.6 0.00 0.00 0.00 46
20260506000054 79 59 0.9 4.3 0.00 0.00 0.00 45
20260505234607 81 58 0.9 4.3 0.00 0.00 0.00 44
20260505233054 82 66 1.7 5.2 0.00 0.00 0.00 42
20260505231607 84 245 0.9 3.5 0.00 0.00 0.00 40
20260505230057 86 119 0.9 5.2 0.00 0.00 0.00 38
20260505224600 87 354 0.9 2.6 0.00 0.00 0.00 37
20260505223001 88 256 0.9 3.5 0.00 0.00 0.00 35
20260505221503 89 217 0.9 4.3 0.00 0.00 0.00 34
20260505220005 90 73 0.9 5.2 0.00 0.00 0.00 31
20260505214513 92 213 0.9 2.6 0.00 0.00 0.00 32
20260505213008 92 293 0.9 5.2 0.00 0.00 0.00 32
20260505211510 92 252 1.7 6.1 0.00 0.00 0.00 32
20260505210007 92 268 1.7 4.3 0.00 0.00 0.00 36 720.7
20260505204510 91 265 1.7 4.3 0.00 0.00 0.00 37 720.7
20260505203009 90 224 1.7 6.1 0.00 0.00 0.00 38 720.7
20260505201513 90 257 1.7 6.1 0.00 0.00 0.00 38 720.7
20260505200013 90 233 0.0 6.1 0.00 0.00 0.00 40 720.7
20260505194509 89 245 2.6 6.1 0.00 0.00 0.00 42 720.7
20260505193010 88 221 2.6 5.2 0.00 0.00 0.00 44 720.7
20260505191510 86 233 2.6 6.1 0.00 0.00 0.00 46 720.7
20260505190007 85 203 0.9 7.8 0.00 0.00 0.00 47 720.7
20260505184502 84 235 1.7 7.8 0.00 0.00 0.00 49 720.7
20260505183107 83 261 2.6 8.7 0.00 0.00 0.00 49 720.7
20260505181600 83 224 2.6 7.0 0.00 0.00 0.00 49 720.7
20260505180105 82 235 2.6 7.0 0.00 0.00 0.00 51 720.7
20260505174605 82 221 2.6 9.6 0.00 0.00 0.00 52 720.7
20260505173059 81 232 4.3 9.6 0.00 0.00 0.00 52 720.7
20260505171600 81 230 1.7 8.7 0.00 0.00 0.00 53 720.7
20260505170059 80 235 2.6 7.8 0.00 0.00 0.00 54 720.7
20260505164605 79 208 1.7 7.0 0.00 0.00 0.00 56 720.7
20260505163057 78 234 1.7 9.6 0.00 0.00 0.00 56 809.3
20260505161604 78 249 2.6 6.1 0.00 0.00 0.00 56 809.3
20260505153054 75 228 2.6 7.0 0.00 0.00 0.00 59 809.3
20260505151600 75 218 0.9 7.0 0.00 0.00 0.00 60 809.3
20260505140113 72 227 2.6 6.1 0.00 0.00 0.00 66 809.3